Time,TemperatureF,DewpointF,PressureIn,WindDirection,WindDirectionDegrees,WindSpeedMPH,WindSpeedGustMPH,Humidity,HourlyPrecipIn,Conditions,Clouds,dailyrainin,SoftwareType,DateUTC
2013-05-17 00:12:00,70.2,64.1,29.89,SSE,157,2.7,-999.0,81,-99.99,,,0.00,Acu-Link.com,2013-05-17 04:12:00,
2013-05-17 00:27:00,70.0,64.2,29.88,ENE,67,0.0,-999.0,82,-99.99,,,0.00,Acu-Link.com,2013-05-17 04:27:00,
2013-05-17 00:43:00,69.8,64.0,29.88,ESE,112,0.0,-999.0,82,-99.99,,,0.00,Acu-Link.com,2013-05-17 04:43:00,
2013-05-17 00:58:00,69.6,64.2,29.87,ESE,112,5.8,-999.0,83,-99.99,,,0.00,Acu-Link.com,2013-05-17 04:58:00,
2013-05-17 01:13:00,69.6,64.2,29.88,ESE,112,2.7,-999.0,83,-99.99,,,0.00,Acu-Link.com,2013-05-17 05:13:00,
2013-05-17 01:28:00,68.9,63.9,29.88,WNW,292,0.0,-999.0,84,-99.99,,,0.00,Acu-Link.com,2013-05-17 05:28:00,
2013-05-17 01:43:00,68.0,63.3,29.87,West,270,0.0,-999.0,85,-99.99,,,0.00,Acu-Link.com,2013-05-17 05:43:00,
2013-05-17 01:59:00,67.3,63.3,29.86,NE,45,0.0,-999.0,87,-99.99,,,0.00,Acu-Link.com,2013-05-17 05:59:00,
2013-05-17 02:14:00,66.7,63.0,29.88,WSW,247,0.0,-999.0,88,-99.99,,,0.00,Acu-Link.com,2013-05-17 06:14:00,
2013-05-17 02:29:00,66.2,63.2,29.86,ESE,112,1.7,-999.0,90,-99.99,,,0.00,Acu-Link.com,2013-05-17 06:29:00,
2013-05-17 02:44:00,66.2,63.2,29.86,SE,135,0.0,-999.0,90,-99.99,,,0.00,Acu-Link.com,2013-05-17 06:44:00,
2013-05-17 02:59:00,65.7,63.0,29.86,NNE,22,0.0,-999.0,91,-99.99,,,0.00,Acu-Link.com,2013-05-17 06:59:00,
2013-05-17 03:15:00,65.1,62.4,29.86,West,270,0.0,-999.0,91,-99.99,,,0.00,Acu-Link.com,2013-05-17 07:15:00,
2013-05-17 03:30:00,64.8,62.1,29.86,West,270,0.0,-999.0,91,-99.99,,,0.00,Acu-Link.com,2013-05-17 07:30:00,
2013-05-17 03:45:00,64.2,61.8,29.86,ENE,67,0.0,-999.0,92,-99.99,,,0.00,Acu-Link.com,2013-05-17 07:45:00,
2013-05-17 04:00:00,63.9,61.8,29.86,West,270,0.0,-999.0,93,-99.99,,,0.00,Acu-Link.com,2013-05-17 08:00:00,
2013-05-17 04:16:00,64.4,62.6,29.87,North,0,1.1,-999.0,94,-99.99,,,0.00,Acu-Link.com,2013-05-17 08:16:00,
2013-05-17 04:31:00,64.0,62.2,29.87,SE,135,0.0,-999.0,94,-99.99,,,0.00,Acu-Link.com,2013-05-17 08:31:00,
2013-05-17 04:46:00,63.7,62.2,29.87,NNE,22,0.0,-999.0,95,-99.99,,,0.00,Acu-Link.com,2013-05-17 08:46:00,
2013-05-17 05:01:00,63.3,61.5,29.87,West,270,0.0,-999.0,94,-99.99,,,0.00,Acu-Link.com,2013-05-17 09:01:00,
2013-05-17 05:16:00,62.8,61.0,29.87,West,270,0.0,-999.0,94,-99.99,,,0.00,Acu-Link.com,2013-05-17 09:16:00,
2013-05-17 05:31:00,62.8,61.3,29.87,ESE,112,0.0,-999.0,95,-99.99,,,0.00,Acu-Link.com,2013-05-17 09:31:00,
2013-05-17 05:47:00,62.8,61.6,29.88,North,0,0.0,-999.0,96,-99.99,,,0.00,Acu-Link.com,2013-05-17 09:47:00,
2013-05-17 06:02:00,63.3,62.4,29.88,NNE,22,0.0,-999.0,97,-99.99,,,0.00,Acu-Link.com,2013-05-17 10:02:00,
2013-05-17 06:17:00,63.3,62.4,29.88,ESE,112,0.0,-999.0,97,-99.99,,,0.00,Acu-Link.com,2013-05-17 10:17:00,
2013-05-17 06:32:00,63.0,62.1,29.88,East,90,0.0,-999.0,97,-99.99,,,0.00,Acu-Link.com,2013-05-17 10:32:00,
2013-05-17 06:48:00,63.1,62.2,29.90,ESE,112,2.2,-999.0,97,-99.99,,,0.00,Acu-Link.com,2013-05-17 10:48:00,
2013-05-17 07:03:00,63.3,62.4,29.89,ENE,67,0.0,-999.0,97,-99.99,,,0.00,Acu-Link.com,2013-05-17 11:03:00,
2013-05-17 07:18:00,64.0,63.1,29.90,SSW,202,0.0,-999.0,97,-99.99,,,0.00,Acu-Link.com,2013-05-17 11:18:00,
2013-05-17 07:33:00,66.9,64.8,29.90,ESE,112,1.7,-999.0,93,-99.99,,,0.00,Acu-Link.com,2013-05-17 11:33:00,
2013-05-17 07:48:00,71.8,66.3,29.91,SSE,157,2.2,-999.0,83,-99.99,,,0.00,Acu-Link.com,2013-05-17 11:48:00,
2013-05-17 08:04:00,74.1,65.7,29.90,ESE,112,3.7,-999.0,75,-99.99,,,0.00,Acu-Link.com,2013-05-17 12:04:00,
2013-05-17 08:19:00,77.5,66.5,29.91,ESE,112,0.0,-999.0,69,-99.99,,,0.00,Acu-Link.com,2013-05-17 12:19:00,
2013-05-17 08:34:00,80.1,67.3,29.92,SSE,157,1.7,-999.0,65,-99.99,,,0.00,Acu-Link.com,2013-05-17 12:34:00,
2013-05-17 08:49:00,82.9,67.1,29.91,SSE,157,3.2,-999.0,59,-99.99,,,0.00,Acu-Link.com,2013-05-17 12:49:00,
2013-05-17 09:04:00,82.9,67.1,29.93,SSW,202,1.7,-999.0,59,-99.99,,,0.00,Acu-Link.com,2013-05-17 13:04:00,
2013-05-17 09:20:00,85.5,67.5,29.92,South,180,1.1,-999.0,55,-99.99,,,0.00,Acu-Link.com,2013-05-17 13:20:00,
2013-05-17 09:35:00,86.5,67.8,29.92,NW,315,1.7,-999.0,54,-99.99,,,0.00,Acu-Link.com,2013-05-17 13:35:00,
2013-05-17 09:50:00,80.1,66.3,29.92,ESE,112,2.2,-999.0,63,-99.99,,,0.00,Acu-Link.com,2013-05-17 13:50:00,
2013-05-17 10:05:00,81.1,66.8,29.92,SSE,157,3.7,-999.0,62,-99.99,,,0.00,Acu-Link.com,2013-05-17 14:05:00,
2013-05-17 10:20:00,81.9,67.1,29.93,South,180,2.2,-999.0,61,-99.99,,,0.00,Acu-Link.com,2013-05-17 14:20:00,
2013-05-17 10:36:00,79.9,65.2,29.93,West,270,0.0,-999.0,61,-99.99,,,0.00,Acu-Link.com,2013-05-17 14:36:00,
2013-05-17 10:51:00,81.3,66.1,29.93,WSW,247,1.7,-999.0,60,-99.99,,,0.00,Acu-Link.com,2013-05-17 14:51:00,
2013-05-17 11:06:00,81.1,65.9,29.94,WSW,247,0.0,-999.0,60,-99.99,,,0.00,Acu-Link.com,2013-05-17 15:06:00,
2013-05-17 11:22:00,81.0,66.3,29.94,West,270,3.7,-999.0,61,-99.99,,,0.00,Acu-Link.com,2013-05-17 15:22:00,
2013-05-17 11:37:00,80.8,65.6,29.92,West,270,4.2,-999.0,60,-99.99,,,0.00,Acu-Link.com,2013-05-17 15:37:00,
2013-05-17 11:52:00,84.0,66.1,29.92,SW,225,1.1,-999.0,55,-99.99,,,0.00,Acu-Link.com,2013-05-17 15:52:00,
2013-05-17 12:07:00,83.1,65.2,29.93,South,180,1.1,-999.0,55,-99.99,,,0.00,Acu-Link.com,2013-05-17 16:07:00,
2013-05-17 12:22:00,84.9,65.3,29.92,SW,225,0.0,-999.0,52,-99.99,,,0.00,Acu-Link.com,2013-05-17 16:22:00,
2013-05-17 12:38:00,82.6,64.2,29.92,WSW,247,1.7,-999.0,54,-99.99,,,0.00,Acu-Link.com,2013-05-17 16:38:00,
2013-05-17 12:53:00,81.7,62.9,29.93,West,270,2.2,-999.0,53,-99.99,,,0.00,Acu-Link.com,2013-05-17 16:53:00,
2013-05-17 13:08:00,85.3,63.4,29.91,ESE,112,3.7,-999.0,48,-99.99,,,0.00,Acu-Link.com,2013-05-17 17:08:00,
2013-05-17 13:23:00,86.9,63.0,29.90,West,270,2.7,-999.0,45,-99.99,,,0.00,Acu-Link.com,2013-05-17 17:23:00,
2013-05-17 13:38:00,84.7,64.0,29.89,WSW,247,0.0,-999.0,50,-99.99,,,0.00,Acu-Link.com,2013-05-17 17:38:00,
2013-05-17 13:54:00,85.1,61.3,29.89,North,0,1.7,-999.0,45,-99.99,,,0.00,Acu-Link.com,2013-05-17 17:54:00,
2013-05-17 14:09:00,89.1,65.0,29.89,South,180,3.7,-999.0,45,-99.99,,,0.00,Acu-Link.com,2013-05-17 18:09:00,
2013-05-17 14:24:00,87.8,62.5,29.89,East,90,2.7,-999.0,43,-99.99,,,0.00,Acu-Link.com,2013-05-17 18:24:00,
2013-05-17 14:39:00,85.8,62.0,29.87,West,270,1.1,-999.0,45,-99.99,,,0.00,Acu-Link.com,2013-05-17 18:39:00,
2013-05-17 14:55:00,87.1,61.9,29.87,NNW,337,1.1,-999.0,43,-99.99,,,0.00,Acu-Link.com,2013-05-17 18:55:00,
2013-05-17 15:10:00,90.3,62.7,29.87,SSE,157,6.3,-999.0,40,-99.99,,,0.00,Acu-Link.com,2013-05-17 19:10:00,
2013-05-17 15:25:00,87.4,60.8,29.87,NE,45,4.7,-999.0,41,-99.99,,,0.00,Acu-Link.com,2013-05-17 19:25:00,
2013-05-17 15:40:00,89.6,62.0,29.86,ESE,112,3.2,-999.0,40,-99.99,,,0.00,Acu-Link.com,2013-05-17 19:40:00,
2013-05-17 15:55:00,90.1,63.2,29.86,South,180,3.7,-999.0,41,-99.99,,,0.00,Acu-Link.com,2013-05-17 19:55:00,
2013-05-17 16:11:00,90.0,63.1,29.85,SSW,202,2.2,-999.0,41,-99.99,,,0.00,Acu-Link.com,2013-05-17 20:11:00,
2013-05-17 16:26:00,89.2,63.1,29.86,East,90,2.2,-999.0,42,-99.99,,,0.00,Acu-Link.com,2013-05-17 20:26:00,
2013-05-17 16:41:00,93.2,63.8,29.85,South,180,2.7,-999.0,38,-99.99,,,0.00,Acu-Link.com,2013-05-17 20:41:00,
2013-05-17 16:56:00,95.0,63.0,29.86,ESE,112,4.2,-999.0,35,-99.99,,,0.00,Acu-Link.com,2013-05-17 20:56:00,
2013-05-17 17:11:00,95.7,63.6,29.85,ESE,112,4.7,-999.0,35,-99.99,,,0.00,Acu-Link.com,2013-05-17 21:11:00,
2013-05-17 17:27:00,89.1,67.4,29.85,SE,135,5.8,-999.0,49,-99.99,,,0.00,Acu-Link.com,2013-05-17 21:27:00,
2013-05-17 17:42:00,85.1,67.6,29.85,South,180,7.3,-999.0,56,-99.99,,,0.00,Acu-Link.com,2013-05-17 21:42:00,
2013-05-17 17:57:00,83.8,67.9,29.85,SSE,157,3.7,-999.0,59,-99.99,,,0.00,Acu-Link.com,2013-05-17 21:57:00,
2013-05-17 18:12:00,84.4,68.0,29.85,ENE,67,6.8,-999.0,58,-99.99,,,0.00,Acu-Link.com,2013-05-17 22:12:00,
2013-05-17 18:27:00,83.8,67.9,29.86,South,180,5.8,-999.0,59,-99.99,,,0.00,Acu-Link.com,2013-05-17 22:27:00,
2013-05-17 18:43:00,82.8,67.9,29.86,SE,135,7.8,-999.0,61,-99.99,,,0.00,Acu-Link.com,2013-05-17 22:43:00,
2013-05-17 18:58:00,82.8,67.9,29.87,ESE,112,5.8,-999.0,61,-99.99,,,0.00,Acu-Link.com,2013-05-17 22:58:00,
2013-05-17 19:13:00,81.9,67.6,29.87,ESE,112,6.8,-999.0,62,-99.99,,,0.00,Acu-Link.com,2013-05-17 23:13:00,
2013-05-17 19:28:00,81.5,67.7,29.87,NE,45,9.9,-999.0,63,-99.99,,,0.00,Acu-Link.com,2013-05-17 23:28:00,
2013-05-17 19:44:00,80.2,67.3,29.87,ESE,112,4.2,-999.0,65,-99.99,,,0.00,Acu-Link.com,2013-05-17 23:44:00,
2013-05-17 19:59:00,79.0,67.9,29.88,ESE,112,3.2,-999.0,69,-99.99,,,0.00,Acu-Link.com,2013-05-17 23:59:00,
2013-05-17 20:14:00,78.1,67.9,29.87,SSE,157,6.3,-999.0,71,-99.99,,,0.00,Acu-Link.com,2013-05-18 00:14:00,
2013-05-17 20:29:00,77.4,68.4,29.88,ESE,112,5.3,-999.0,74,-99.99,,,0.00,Acu-Link.com,2013-05-18 00:29:00,
2013-05-17 20:44:00,76.8,68.3,29.90,ESE,112,7.3,-999.0,75,-99.99,,,0.00,Acu-Link.com,2013-05-18 00:44:00,
2013-05-17 21:00:00,76.3,68.2,29.89,ESE,112,5.3,-999.0,76,-99.99,,,0.00,Acu-Link.com,2013-05-18 01:00:00,
2013-05-17 21:15:00,75.9,68.2,29.89,ESE,112,6.8,-999.0,77,-99.99,,,0.00,Acu-Link.com,2013-05-18 01:15:00,
2013-05-17 21:30:00,75.6,68.2,29.89,ESE,112,5.8,-999.0,78,-99.99,,,0.00,Acu-Link.com,2013-05-18 01:30:00,
2013-05-17 21:45:00,75.0,68.0,29.89,SE,135,5.3,-999.0,79,-99.99,,,0.00,Acu-Link.com,2013-05-18 01:45:00,
2013-05-17 22:00:00,74.7,68.5,29.89,ESE,112,4.2,-999.0,81,-99.99,,,0.00,Acu-Link.com,2013-05-18 02:00:00,
2013-05-17 22:16:00,74.3,68.4,29.90,SE,135,4.7,-999.0,82,-99.99,,,0.00,Acu-Link.com,2013-05-18 02:16:00,
2013-05-17 22:31:00,73.9,68.4,29.91,SE,135,3.2,-999.0,83,-99.99,,,0.00,Acu-Link.com,2013-05-18 02:31:00,
2013-05-17 22:46:00,73.6,68.5,29.91,ESE,112,4.7,-999.0,84,-99.99,,,0.00,Acu-Link.com,2013-05-18 02:46:00,
2013-05-17 23:01:00,73.2,68.4,29.91,ESE,112,3.7,-999.0,85,-99.99,,,0.00,Acu-Link.com,2013-05-18 03:01:00,
2013-05-17 23:16:00,72.9,68.5,29.91,ESE,112,4.7,-999.0,86,-99.99,,,0.00,Acu-Link.com,2013-05-18 03:16:00,
2013-05-17 23:32:00,72.5,68.4,29.91,SSE,157,3.7,-999.0,87,-99.99,,,0.00,Acu-Link.com,2013-05-18 03:32:00,
2013-05-17 23:47:00,72.1,68.0,29.92,SSE,157,3.7,-999.0,87,-99.99,,,0.00,Acu-Link.com,2013-05-18 03:47:00,